This is the latest recevied weather packets stored in our database for station/object AI4QX-5. If no packets are shown the sender has not sent any weather packets the latest 10 day(s).
| Time | Temp. | Humidity | Pressure | Rain* | Wind** | Luminosity | Snow |
|---|---|---|---|---|---|---|---|
| 1778089200 | 29.44° C | 42% | 1015.4 hPa | 0 mm | - | - | - |
| 1778088600 | 29.44° C | 39% | 1015.4 hPa | 0 mm | - | - | - |
| 1778088000 | 29.44° C | 42% | 1015.5 hPa | 0 mm | - | - | - |
| 1778087400 | 28.89° C | 40% | 1015.4 hPa | 0 mm | - | - | - |
| 1778086800 | 29.44° C | 45% | 1015.6 hPa | 0 mm | - | - | - |
| 1778086200 | 28.89° C | 44% | 1015.6 hPa | 0 mm | - | - | - |
| 1778085600 | 29.44° C | 44% | 1015.6 hPa | 0 mm | - | - | - |
| 1778085000 | 28.89° C | 45% | 1015.7 hPa | 0 mm | - | - | - |
| 1778084400 | 28.89° C | 44% | 1015.6 hPa | 0 mm | - | - | - |
| 1778083800 | 28.89° C | 47% | 1015.7 hPa | 0 mm | - | - | - |
| 1778083200 | 28.89° C | 43% | 1015.8 hPa | 0 mm | - | - | - |
| 1778082600 | 28.33° C | 43% | 1015.9 hPa | 0 mm | - | - | - |
| 1778082000 | 28.33° C | 45% | 1015.9 hPa | 0 mm | - | - | - |
| 1778081400 | 28.33° C | 45% | 1016.1 hPa | 0 mm | - | - | - |
| 1778080801 | 27.78° C | 45% | 1016.1 hPa | 0 mm | - | - | - |
| 1778080200 | 27.78° C | 45% | 1016 hPa | 0 mm | - | - | - |
| 1778079601 | 27.22° C | 46% | 1015.9 hPa | 0 mm | - | - | - |
| 1778079000 | 27.22° C | 46% | 1016 hPa | 0 mm | - | - | - |
| 1778078400 | 26.67° C | 47% | 1015.9 hPa | 0 mm | - | - | - |
| 1778077800 | 26.67° C | 46% | 1015.9 hPa | 0 mm | - | - | - |
| 1778077200 | 26.67° C | 47% | 1016 hPa | 0 mm | - | - | - |
| 1778076601 | 26.11° C | 48% | 1015.9 hPa | 0 mm | - | - | - |
| 1778076000 | 26.11° C | 45% | 1015.9 hPa | 0 mm | - | - | - |
| 1778075400 | 25.56° C | 45% | 1015.8 hPa | 0 mm | - | - | - |
| 1778074800 | 25.56° C | 45% | 1015.7 hPa | 0 mm | - | - | - |
* Rain latest hour (hover to see other rain measurements)
** Current wind speed in m/s (hover to see current wind gust speed)